Change the Weather History Date:

Monday, October 15, 2012

  Actual Average Record
Temperature  
Mean Temperature 52 °F -  
Max Temperature 64 °F 59 °F 77 °F (1958)
Min Temperature 40 °F 25 °F 5 °F (1952)
Degree Days  
Heating Degree Days 12    
Growing Degree Days 2 (Base 50)    
Moisture  
Dew Point 25 °F    
Average Humidity 34    
Maximum Humidity 63    
Minimum Humidity 18    
Precipitation  
Precipitation 0.00 in - - ()
Sea Level Pressure  
Sea Level Pressure 30.15 in    
Wind  
Wind Speed 3 mph (West)    
Max Wind Speed 13 mph    
Max Gust Speed 21 mph    
Visibility 10 miles    
Events      
Averages and records for this station are not official NWS values.
T = Trace of Precipitation, MM = Missing Value Source: NWS Daily Summary

Daily Weather History Graph

Daily Weather History Graph

Search for Another Location

Airport or City:

Trip Planner

Search our weather history database for the weather conditions in past years. The results will help you decide how hot, cold, wet, or windy it might be!

Date:

Astronomy

Oct. 15, 2012 Rise Set
Actual Time 7:19 AM MDT 6:26 PM MDT
Civil Twilight 6:51 AM MDT 6:54 PM MDT
Nautical Twilight 6:19 AM MDT 7:25 PM MDT
Astronomical Twilight 5:48 AM MDT 7:57 PM MDT
Moon 7:33 AM MDT (10/15) 6:27 PM MDT (10/15)
Length of Visible Light 12h 02m
Length of Day
11h 07m
New Moon, 0% of the Moon is Illuminated
Oct 15
New Moon
Oct 21
First Quarter
Oct 29
Full
Nov 6
Last Quarter
Nov 13
New

Hourly Weather History & Observations

Time (MDT) Temp. Dew Point Humidity Pressure Visibility Wind Dir Wind Speed Gust Speed Precip Events Conditions
10:33 AM 45.3 °F 33.4 °F 63% 30.27 in 10.0 mi Calm Calm - N/A   Clear
10:53 AM 46.6 °F 33.8 °F 61% 30.26 in 10.0 mi Calm Calm - N/A   Clear
11:13 AM 48.4 °F 33.4 °F 56% 30.26 in 10.0 mi Calm Calm - N/A   Clear
11:15 AM 48.6 °F 32.9 °F 55% 30.26 in 10.0 mi Calm Calm - N/A   Clear
11:21 AM 49.5 °F 32.4 °F 52% 30.25 in 10.0 mi Calm Calm - N/A   Clear
11:23 AM 49.8 °F 32.4 °F 51% 30.25 in 10.0 mi Calm Calm - N/A   Clear
11:33 AM 52.0 °F 31.6 °F 46% 30.25 in 10.0 mi Calm Calm - N/A   Clear
11:53 AM 54.3 °F 32.5 °F 44% 30.24 in 10.0 mi Calm Calm - N/A   Clear
12:13 PM 56.1 °F 28.2 °F 34% 30.24 in 10.0 mi Calm Calm - N/A   Clear
12:33 PM 57.4 °F 28.8 °F 34% 30.23 in 10.0 mi Calm Calm - N/A   Clear
12:53 PM 58.8 °F 27.3 °F 30% 30.21 in 10.0 mi Calm Calm - N/A   Clear
1:13 PM 59.0 °F 27.3 °F 30% 30.20 in 10.0 mi West 5.8 mph - N/A   Clear
1:33 PM 60.3 °F 26.8 °F 28% 30.19 in 10.0 mi Calm Calm - N/A   Clear
1:53 PM 60.8 °F 26.8 °F 27% 30.18 in 10.0 mi Calm Calm - N/A   Clear
2:13 PM 61.7 °F 27.0 °F 27% 30.16 in 10.0 mi WSW 10.4 mph - N/A   Clear
2:33 PM 62.6 °F 27.3 °F 26% 30.15 in 10.0 mi West 5.8 mph - N/A   Clear
2:53 PM 63.7 °F 25.7 °F 24% 30.13 in 10.0 mi West 10.4 mph 16.1 mph N/A   Clear
3:13 PM 63.9 °F 21.6 °F 20% 30.12 in 10.0 mi WSW 12.7 mph 18.4 mph N/A   Clear
3:33 PM 64.6 °F 22.6 °F 20% 30.12 in 10.0 mi WSW 12.7 mph 19.6 mph N/A   Clear
3:53 PM 64.6 °F 22.5 °F 20% 30.12 in 10.0 mi West 11.5 mph 20.7 mph N/A   Clear
4:13 PM 62.6 °F 23.0 °F 22% 30.11 in 10.0 mi WSW 9.2 mph 12.7 mph N/A   Clear
4:33 PM 62.6 °F 23.5 °F 23% 30.11 in 10.0 mi WSW 11.5 mph - N/A   Clear
4:53 PM 61.2 °F 23.0 °F 23% 30.11 in 10.0 mi West 9.2 mph - N/A   Clear
5:13 PM 62.2 °F 20.5 °F 20% 30.10 in 10.0 mi West 11.5 mph 17.3 mph N/A   Clear
5:33 PM 61.5 °F 17.6 °F 18% 30.09 in 10.0 mi NW 5.8 mph 10.4 mph N/A   Clear
5:53 PM 60.6 °F 17.6 °F 19% 30.10 in 10.0 mi West 5.8 mph - N/A   Clear
6:13 PM 58.5 °F 17.8 °F 21% 30.10 in 10.0 mi West 6.9 mph - N/A   Clear
6:33 PM 56.3 °F 18.5 °F 23% 30.10 in 10.0 mi West 8.1 mph - N/A   Clear
6:53 PM 54.7 °F 19.4 °F 25% 30.11 in 10.0 mi West 5.8 mph - N/A   Clear
7:13 PM 54.0 °F 18.9 °F 25% 30.10 in 10.0 mi WSW 4.6 mph - N/A   Clear
7:33 PM 53.4 °F 18.7 °F 26% 30.11 in 10.0 mi Calm Calm - N/A   Clear
7:53 PM 51.3 °F 21.0 °F 31% 30.12 in 10.0 mi Calm Calm - N/A   Clear
8:13 PM 53.2 °F 19.2 °F 26% 30.12 in 10.0 mi East 4.6 mph - N/A   Clear
8:33 PM 52.0 °F 20.3 °F 29% 30.13 in 10.0 mi Calm Calm - N/A   Scattered Clouds
8:53 PM 51.1 °F 20.1 °F 30% 30.12 in 10.0 mi Calm Calm - N/A   Scattered Clouds
9:13 PM 50.7 °F 20.3 °F 30% 30.12 in 10.0 mi Calm Calm - N/A   Scattered Clouds
9:33 PM 48.9 °F 23.4 °F 37% 30.11 in 10.0 mi SE 5.8 mph - N/A   Scattered Clouds
9:53 PM 46.2 °F 25.2 °F 44% 30.12 in 10.0 mi Calm Calm - N/A   Scattered Clouds
10:13 PM 45.9 °F 25.0 °F 44% 30.11 in 10.0 mi Calm Calm - N/A   Mostly Cloudy
10:33 PM 46.4 °F 23.9 °F 41% 30.12 in 10.0 mi Calm Calm - N/A   Mostly Cloudy
10:53 PM 46.4 °F 23.5 °F 41% 30.12 in 10.0 mi Calm Calm - N/A   Overcast
11:13 PM 42.8 °F 26.8 °F 53% 30.11 in 10.0 mi Calm Calm - N/A   Scattered Clouds
11:33 PM 41.4 °F 27.1 °F 57% 30.12 in 10.0 mi Calm Calm - N/A   Clear
11:53 PM 40.6 °F 28.6 °F 62% 30.13 in 10.0 mi Calm Calm - N/A   Scattered Clouds